COSMOS 2251 DEB, 34553

Orbit data source: Space-Track

COSMOS 2251 DEB, 34553 is space debris in LEO originally from a launch on Wed, 16 Jun 1993 UTC launched from the Plesetsk Missile And Space Complex (PKMTR). The debris from Iridium 33, an American commercial communications satellite, has been tracked extensively since its accidental collision with the defunct Russian satellite Cosmos 2251 in 2009. This event, occurring at high speed in low Earth orbit (LEO), generated thousands of pieces of space debris, significantly increasing the risk of further collisions. The Iridium 33 debris cloud has impacted space traffic management and orbital debris mitigation strategies, making it a subject of ongoing study in space situational awareness.

Loading next visibility...
Identifier
34553, 1993-036UP
Orbit
LEO
Country
Flag of CISCIS
Related business
Manufacturer
Unknown
Mission
Spacecraft
Bus & Motor
Unknown
Mass
Unknown
Launch date (UTC)
1993-06-16 (33 years ago)
Launch vehicle
Unknown
Launch site
Plesetsk Missile And Space Complex (PKMTR)
Object type
Payload
Rocket body
Debris
Shape & HBR
Unknown shape, 0.1 m
Radar Cross Section
Small (<0.1 m²)

Expand to show TLE details & history
Last TLE update: 13 hours ago

TLE from 13 hours ago
0 COSMOS 2251 DEB
1 34553U 93036UP  26034.14614444  .00004697  00000-0  10168-2 0  9998
2 34553  74.0246  92.1381 0016693 165.7488 225.1004 14.58418043888605
Epoch: 2026-02-03T03:30Z
TLE epoch observation values (Epoch: 2026-02-03T03:30:26.879Z)
Latitude
29.46427°
Longitude
-84.548°
Altitude
710.01 km
Speed
7.499 km/s
True Right ascension
06h 45m 34s
True Declination
29° 18' 58"
Sunlit
Object was in full shadow at epoch
Visualization orbit readout
Latitude
Unknown
Longitude
Unknown
Altitude
Unknown
Speed
Unknown
Apparent Right ascension
Unknown
Apparent Declination
Unknown
Sunlit
N/A
Visualization observer readout
Local Sidereal Time
18:04:17
Azimuth
Unknown
Elevation
Unknown
Doppler factor
Unknown
Orbital elements
Apogee altitude
707.696 km
Perigee altitude
684.078 km
Semi-major axis
7,074.024 km
Eccentricity
0.00167
Inclination
74.0246°
RAAN
92.1381°
Arg. of periapsis
165.7488°
True anomaly
224.9651°
Mean anomaly
225.1004°
Eccentric anomaly
225.03273°
Mean motion
3.6479 °/min
Orbital period
98.69 mins
BSTAR
0.0010168
Loading maneuver chart data...
Computing Atmospheric mass density...
Loading historical data...
Loading historical data...
Loading historical data...
Loading historical data...
Loading historical data...
Loading historical data...
Loading historical data...

Documentation

Showing up to 5 results
|